When you browse on this site, cookies collect data to enhance your experience and personalize the content and advertising you see.
Visit our Privacy Policy to learn more. By continuing to use the site, you agree to this use of cookies and data.
  • în România
  • Lista ţărilor
  • Pe 7 zile
  • Temperatura apei
  • Hartă satelitară
  • Meteo pe hartă
  • Widget-uri
  • user-avatar
    Intrare

    Meteo pe oră la Beverly

    Astăzi, 17 Iunie, Luni

    Timp Temperatura Precipitaţii Vânt Presiune Umiditate
    00:00 +12°C° 0 mm 7 m/s 760 mmHg 90%
    01:00 +11°C° 0 mm 6 m/s 760 mmHg 91%
    02:00 +11°C° 0 mm 6 m/s 759 mmHg 91%
    03:00 +10°C° 0 mm 6 m/s 759 mmHg 92%
    04:00 +11°C° 0 mm 6 m/s 759 mmHg 91%
    05:00 +11°C° 0 mm 6 m/s 760 mmHg 90%
    06:00 +11°C° 0 mm 6 m/s 760 mmHg 89%
    07:00 +12°C° 0 mm 7 m/s 760 mmHg 86%
    08:00 +14°C° 0 mm 7 m/s 760 mmHg 84%
    09:00 +15°C° 0 mm 7 m/s 760 mmHg 81%
    10:00 +16°C° 0.2 mm 7 m/s 760 mmHg 80%
    11:00 +17°C° 0.2 mm 7 m/s 760 mmHg 80%
    12:00 +17°C° 0.2 mm 7 m/s 760 mmHg 79%
    13:00 +19°C° 0.5 mm 6 m/s 760 mmHg 78%
    14:00 +19°C° 0.5 mm 6 m/s 759 mmHg 77%
    15:00 +19°C° 0.5 mm 6 m/s 759 mmHg 77%
    16:00 +19°C° 0.5 mm 5 m/s 759 mmHg 78%
    17:00 +19°C° 0.5 mm 5 m/s 759 mmHg 79%
    18:00 +19°C° 0.5 mm 4 m/s 759 mmHg 81%
    19:00 +17°C° 0.1 mm 4 m/s 759 mmHg 83%
    20:00 +15°C° 0.1 mm 4 m/s 759 mmHg 86%
    21:00 +14°C° 0.1 mm 3 m/s 759 mmHg 89%
    22:00 +13°C° 0 mm 3 m/s 760 mmHg 89%
    23:00 +12°C° 0 mm 3 m/s 760 mmHg 90%

    Mâine, 18 Iunie, Marţi

    Timp Temperatura Precipitaţii Vânt Presiune Umiditate
    00:00 +12°C° 0 mm 3 m/s 760 mmHg 90%
    01:00 +11°C° 0 mm 3 m/s 760 mmHg 90%
    02:00 +11°C° 0 mm 3 m/s 759 mmHg 90%
    03:00 +10°C° 0 mm 3 m/s 759 mmHg 90%
    04:00 +11°C° 0 mm 3 m/s 759 mmHg 89%
    05:00 +12°C° 0 mm 3 m/s 759 mmHg 87%
    06:00 +12°C° 0 mm 3 m/s 759 mmHg 86%
    07:00 +13°C° 0 mm 3 m/s 759 mmHg 81%
    08:00 +16°C° 0 mm 3 m/s 759 mmHg 76%
    09:00 +17°C° 0 mm 3 m/s 759 mmHg 70%
    10:00 +18°C° 0 mm 3 m/s 759 mmHg 68%
    11:00 +18°C° 0 mm 3 m/s 759 mmHg 66%
    12:00 +19°C° 0 mm 3 m/s 759 mmHg 64%
    13:00 +20°C° 0 mm 3 m/s 759 mmHg 64%
    14:00 +20°C° 0 mm 3 m/s 759 mmHg 65%
    15:00 +20°C° 0 mm 2 m/s 758 mmHg 66%
    16:00 +19°C° 0.2 mm 2 m/s 758 mmHg 73%
    17:00 +18°C° 0.2 mm 3 m/s 758 mmHg 80%
    18:00 +17°C° 0.2 mm 3 m/s 758 mmHg 87%
    19:00 +16°C° 0.4 mm 2 m/s 758 mmHg 89%
    20:00 +15°C° 0.4 mm 1 m/s 758 mmHg 91%
    21:00 +14°C° 0.4 mm 1 m/s 758 mmHg 93%
    22:00 +14°C° 1.6 mm 1 m/s 757 mmHg 94%
    23:00 +14°C° 1.6 mm 1 m/s 757 mmHg 95%

    Poimâine, 19 Iunie, Miercuri

    Timp Temperatura Precipitaţii Vânt Presiune Umiditate
    00:00 +14°C° 1.6 mm 1 m/s 757 mmHg 97%
    01:00 +14°C° 1.5 mm 1 m/s 756 mmHg 97%
    02:00 +14°C° 1.5 mm 2 m/s 756 mmHg 97%
    03:00 +14°C° 1.5 mm 2 m/s 756 mmHg 97%
    04:00 +14°C° 0.2 mm 2 m/s 755 mmHg 97%
    05:00 +14°C° 0.2 mm 2 m/s 755 mmHg 96%
    06:00 +14°C° 0.2 mm 2 m/s 755 mmHg 96%
    07:00 +15°C° 0 mm 2 m/s 754 mmHg 93%
    08:00 +15°C° 0 mm 2 m/s 754 mmHg 91%
    09:00 +16°C° 0 mm 2 m/s 754 mmHg 89%
    10:00 +16°C° 1 mm 2 m/s 754 mmHg 91%
    11:00 +14°C° 1 mm 3 m/s 753 mmHg 93%
    12:00 +14°C° 1 mm 3 m/s 753 mmHg 94%
    13:00 +14°C° 0.9 mm 3 m/s 753 mmHg 94%
    14:00 +14°C° 0.9 mm 3 m/s 753 mmHg 94%
    15:00 +14°C° 0.9 mm 3 m/s 753 mmHg 94%
    16:00 +14°C° 0 mm 3 m/s 753 mmHg 92%
    17:00 +14°C° 0 mm 4 m/s 753 mmHg 90%
    18:00 +14°C° 0 mm 4 m/s 753 mmHg 89%
    19:00 +13°C° 0 mm 4 m/s 754 mmHg 88%
    20:00 +12°C° 0 mm 4 m/s 754 mmHg 87%
    21:00 +12°C° 0 mm 4 m/s 755 mmHg 86%
    22:00 +11°C° 0 mm 4 m/s 755 mmHg 88%
    23:00 +10°C° 0 mm 3 m/s 755 mmHg 90%

    20 Iunie, Joi

    Timp Temperatura Precipitaţii Vânt Presiune Umiditate
    00:00 +9°C° 0 mm 3 m/s 755 mmHg 91%
    01:00 +9°C° 0 mm 3 m/s 755 mmHg 92%
    02:00 +9°C° 0 mm 3 m/s 755 mmHg 92%
    03:00 +9°C° 0 mm 3 m/s 755 mmHg 92%
    04:00 +10°C° 0 mm 3 m/s 755 mmHg 91%
    05:00 +11°C° 0 mm 4 m/s 756 mmHg 90%
    06:00 +12°C° 0 mm 4 m/s 756 mmHg 88%
    07:00 +13°C° 0.1 mm 4 m/s 756 mmHg 83%
    08:00 +14°C° 0.1 mm 4 m/s 756 mmHg 79%
    09:00 +15°C° 0.1 mm 5 m/s 756 mmHg 74%
    10:00 +16°C° 0.2 mm 5 m/s 757 mmHg 71%
    11:00 +16°C° 0.2 mm 5 m/s 757 mmHg 68%
    12:00 +17°C° 0.2 mm 5 m/s 757 mmHg 64%
    13:00 +17°C° 0.4 mm 5 m/s 757 mmHg 67%
    14:00 +17°C° 0.4 mm 5 m/s 757 mmHg 70%
    15:00 +16°C° 0.4 mm 5 m/s 757 mmHg 72%
    16:00 +17°C° 0.2 mm 4 m/s 757 mmHg 74%
    17:00 +17°C° 0.2 mm 4 m/s 757 mmHg 75%
    18:00 +16°C° 0.2 mm 3 m/s 757 mmHg 76%
    19:00 +14°C° 0.1 mm 3 m/s 757 mmHg 78%
    20:00 +14°C° 0.1 mm 2 m/s 757 mmHg 81%
    21:00 +12°C° 0.1 mm 2 m/s 758 mmHg 83%
    22:00 +11°C° 0 mm 3 m/s 758 mmHg 85%
    23:00 +10°C° 0 mm 3 m/s 758 mmHg 86%

    21 Iunie, Vineri

    Timp Temperatura Precipitaţii Vânt Presiune Umiditate
    00:00 +9°C° 0 mm 3 m/s 758 mmHg 88%
    01:00 +8°C° 0 mm 4 m/s 758 mmHg 90%
    02:00 +7°C° 0 mm 4 m/s 758 mmHg 91%
    03:00 +7°C° 0 mm 4 m/s 758 mmHg 92%
    04:00 +8°C° 0 mm 4 m/s 758 mmHg 91%
    05:00 +10°C° 0 mm 4 m/s 758 mmHg 90%
    06:00 +11°C° 0 mm 4 m/s 758 mmHg 89%
    07:00 +12°C° 0 mm 4 m/s 759 mmHg 82%
    08:00 +13°C° 0 mm 5 m/s 759 mmHg 76%
    09:00 +15°C° 0 mm 5 m/s 759 mmHg 70%
    10:00 +15°C° 0.2 mm 5 m/s 760 mmHg 67%
    11:00 +16°C° 0.2 mm 5 m/s 760 mmHg 64%
    12:00 +16°C° 0.2 mm 5 m/s 760 mmHg 61%
    13:00 +17°C° 0.1 mm 5 m/s 760 mmHg 60%
    14:00 +17°C° 0.1 mm 5 m/s 760 mmHg 58%
    15:00 +17°C° 0.1 mm 5 m/s 760 mmHg 57%
    16:00 +17°C° 0 mm 4 m/s 760 mmHg 61%
    17:00 +17°C° 0 mm 4 m/s 761 mmHg 66%
    18:00 +15°C° 0 mm 4 m/s 761 mmHg 70%
    19:00 +14°C° 0 mm 3 m/s 761 mmHg 76%
    20:00 +12°C° 0 mm 3 m/s 762 mmHg 81%
    21:00 +10°C° 0 mm 2 m/s 762 mmHg 86%
    22:00 +10°C° 0 mm 2 m/s 763 mmHg 87%
    23:00 +9°C° 0 mm 2 m/s 763 mmHg 87%

    22 Iunie, Sâmbătă

    Timp Temperatura Precipitaţii Vânt Presiune Umiditate
    00:00 +8°C° 0 mm 2 m/s 763 mmHg 88%
    01:00 +8°C° 0 mm 2 m/s 763 mmHg 88%
    02:00 +7°C° 0 mm 2 m/s 763 mmHg 87%
    03:00 +8°C° 0 mm 1 m/s 763 mmHg 87%
    04:00 +9°C° 0 mm 1 m/s 764 mmHg 83%
    05:00 +10°C° 0 mm 1 m/s 764 mmHg 80%
    06:00 +11°C° 0 mm 1 m/s 764 mmHg 76%
    07:00 +13°C° 0 mm 1 m/s 764 mmHg 70%
    08:00 +14°C° 0 mm 1 m/s 764 mmHg 65%
    09:00 +16°C° 0 mm 1 m/s 764 mmHg 59%
    10:00 +16°C° 0 mm 2 m/s 764 mmHg 58%
    11:00 +17°C° 0 mm 2 m/s 764 mmHg 57%
    12:00 +18°C° 0 mm 3 m/s 765 mmHg 56%
    13:00 +18°C° 0 mm 3 m/s 764 mmHg 59%
    14:00 +17°C° 0 mm 3 m/s 764 mmHg 61%
    15:00 +17°C° 0 mm 3 m/s 764 mmHg 63%
    16:00 +17°C° 0 mm 3 m/s 764 mmHg 66%
    17:00 +16°C° 0 mm 3 m/s 764 mmHg 68%
    18:00 +14°C° 0 mm 3 m/s 764 mmHg 70%
    19:00 +13°C° 0 mm 3 m/s 765 mmHg 75%
    20:00 +11°C° 0 mm 3 m/s 765 mmHg 79%
    21:00 +10°C° 0 mm 2 m/s 765 mmHg 84%
    22:00 +9°C° 0 mm 2 m/s 765 mmHg 85%
    23:00 +9°C° 0 mm 2 m/s 766 mmHg 85%
    Arată mai mult